Regional Weather Roundup
Issued by NWS

Home | Current Version | Previous Version | Text Only | Print | Product List | Glossary Off
Versions: 1 2 3 4 5 6 7 8 9 10 11 12 13 14 15 16 17 18 19 20 21 22 23 24 25 26 27 28 29 30 31 32 33 34 35 36 37 38 39 40 41 42 43 44 45 46 47 48 49 50

000
ASUS43 KLSX 110107
RWRMO

WEATHER SUMMARY FOR MISSOURI
NATIONAL WEATHER SERVICE SPRINGFIELD MO
700 PM CST SUN DEC 10 2017

NOTE: "FAIR" INDICATES FEW OR NO CLOUDS BELOW 12,000 FEET WITH NO
       SIGNIFICANT WEATHER AND/OR OBSTRUCTIONS TO VISIBILITY.
       CURRENT SKY AND/OR WEATHER CONDITIONS ARE NOT AVAILABLE FOR
       CHILLICOTHE AND FARMINGTON.

MOZ001>031-035>038-043-044-053-054-110200-
...NORTHERN AND WESTERN MISSOURI...

CITY           SKY/WX    TMP DP  RH WIND       PRES   REMARKS
KANSAS CTY INT CLEAR     49  24  37 CALM      30.14R
KANSAS C DTWN  CLEAR     43  23  45 CALM      30.13S
LEE`S SUMMIT   CLEAR     48  23  37 W5        30.14S
ST JOSEPH      CLEAR     36  25  64 CALM      30.14R
CHILLICOTHE      N/A     38  25  59 W3        30.13S
KIRKSVILLE     CLEAR     38  25  59 NW5       30.11R

$$
MOZ066>068-077>081-088>096-101>105-110200-
...SOUTHWEST MISSOURI...

CITY           SKY/WX    TMP DP  RH WIND       PRES   REMARKS
SPRINGFIELD    CLEAR     41  24  51 CALM      30.16R
JOPLIN         CLEAR     49  23  36 W5        30.19R
BRANSON        CLEAR     48  23  37 SW6       30.18R

$$
MOZ032>034-039>042-045>050-055>058-069>072-110200-
...CENTRAL MISSOURI...

CITY           SKY/WX    TMP DP  RH WIND       PRES   REMARKS
COLUMBIA       CLEAR     44  25  47 W7        30.12R
JEFFERSON CITY CLEAR     42  25  50 CALM      30.13R
ROLLA          CLEAR     43  26  51 W8        30.13R
SEDALIA        CLEAR     46  27  47 W5        30.15R
WHITEMAN AFB   CLEAR     48  25  40 W3        30.10S
WARRENSBURG    CLEAR     45  27  49 S3        30.14S
OSAGE BEACH    CLEAR     43  26  51 W5        30.15R

$$
MOZ051-052-059>065-110200-
...EAST CENTRAL MISSOURI...

CITY           SKY/WX    TMP DP  RH WIND       PRES   REMARKS
ST LOUIS INTL  PTCLDY    42  26  53 NW7       30.12R
SPIRIT OF STL  CLEAR     35  25  66 W5        30.12R
ST CHARLES     CLEAR     41  26  55 W5        30.11R

$$
MOZ072>076-082>087-097>100-106>115-110200-
...SOUTH CENTRAL AND SOUTHEAST MISSOURI...

CITY           SKY/WX    TMP DP  RH WIND       PRES   REMARKS
CAPE GIRARDEAU CLEAR     37  29  72 W7        30.11R
FARMINGTON     CLEAR     47  25  42 W5        30.12R
POPLAR BLUFF   CLEAR     44  31  60 SW9       30.12R
WEST PLAINS    CLEAR     47  22  37 W8        30.16R

$$



USA.gov is the U.S. government's official web portal to all federal, state and local government web resources and services.